EW8704 Weather Reports


time (UTC)temp
F
wind
direction
speed
knots
gust
knots
rain 1hr
in
rain 24hr
in
rain mn
in
humidity
%
barometer
mb
20260507104534 35 231 1.7 3.5 0.00 0.00 0.00 74 1013.8
20260507103014 35 220 1.7 3.5 0.00 0.00 0.00 74 1013.8
20260507101511 35 236 0.9 3.5 0.00 0.00 0.00 73 1013.7
20260507100043 35 207 2.6 4.3 0.00 0.00 0.00 72 1013.7
20260507094546 36 209 2.6 4.3 0.00 0.00 0.00 71 1013.8
20260507093009 36 220 2.6 5.2 0.00 0.00 0.00 70 1013.9
20260507091506 37 201 2.6 4.3 0.00 0.00 0.00 69 1013.9
20260507090037 37 209 2.6 5.2 0.00 0.00 0.00 68 1013.9
20260507084543 38 204 2.6 4.3 0.00 0.00 0.00 67 1014.0
20260507083005 38 214 1.7 4.3 0.00 0.00 0.00 67 1014.1
20260507081518 38 216 2.6 4.3 0.00 0.00 0.00 66 1014.1
20260507080045 39 217 2.6 6.1 0.00 0.00 0.00 66 1014.2
20260507074541 38 225 2.6 4.3 0.00 0.00 0.00 66 1014.2
20260507073010 38 207 2.6 4.3 0.00 0.00 0.00 66 1014.3
20260507071503 38 214 0.9 2.6 0.00 0.00 0.00 66 1014.4
20260507070035 38 214 1.7 2.6 0.00 0.00 0.00 66 1014.5
20260507064532 39 221 1.7 4.3 0.00 0.00 0.00 66 1014.7
20260507063004 39 196 1.7 3.5 0.00 0.00 0.00 65 1014.7
20260507061504 39 205 1.7 4.3 0.00 0.00 0.00 65 1014.8
20260507060028 39 205 2.6 4.3 0.00 0.00 0.00 67 1014.9
20260507054514 39 185 0.9 2.6 0.00 0.00 0.00 66 1015.0
20260507053052 39 192 0.0 2.6 0.00 0.00 0.00 62 1015.0
20260507051542 39 194 1.7 4.3 0.00 0.00 0.00 63 1015.2
20260507050128 39 192 1.7 3.5 0.00 0.00 0.00 63 1015.3
20260507044551 39 189 1.7 2.6 0.00 0.00 0.00 62 1015.4
20260507043017 39 196 1.7 3.5 0.00 0.00 0.00 62 1015.4
20260507041519 39 173 1.7 3.5 0.00 0.00 0.00 62 1015.5
20260507040058 39 186 1.7 3.5 0.00 0.00 0.00 62 1015.6
20260507034612 39 200 1.7 2.6 0.00 0.00 0.00 61 1015.8
20260507033031 40 235 0.9 2.6 0.00 0.00 0.00 60 1015.9
20260507031525 40 242 0.9 3.5 0.00 0.00 0.00 59 1016.0
20260507030003 40 260 0.9 2.6 0.00 0.00 0.00 58 1016.1
20260507024503 40 279 1.7 3.5 0.00 0.00 0.00 57 1016.2
20260507023044 40 245 0.9 5.2 0.00 0.00 0.00 57 1016.1
20260507021548 41 273 1.7 6.1 0.00 0.00 0.00 56 1016.1
20260507020032 41 255 2.6 6.1 0.00 0.00 0.00 56 1015.9
20260507014528 41 311 2.6 7.8 0.00 0.00 0.00 55 1015.9
20260507013005 41 267 1.7 5.2 0.00 0.00 0.00 57 1015.8
20260507011557 41 258 1.7 7.0 0.00 0.00 0.00 56 1015.8
20260507010030 41 281 1.7 7.0 0.00 0.00 0.00 56 1015.7
20260507004534 41 296 1.7 7.8 0.00 0.00 0.00 55 1015.8
20260507003015 41 267 3.5 6.1 0.00 0.00 0.00 54 1015.8
20260507001522 41 246 6.1 12.2 0.00 0.00 0.00 54 1015.7
20260507000053 41 312 5.2 11.3 0.00 0.00 0.00 55 1015.7
20260506234525 42 340 6.1 11.3 0.00 0.00 0.00 56 1015.8
20260506233003 42 254 4.3 12.2 0.00 0.00 0.00 56 1015.8
20260506231559 42 315 5.2 10.4 0.00 0.00 0.00 56 1015.8
20260506231502 42 275 5.2 10.4 0.00 0.00 0.00 57 1015.8
20260506230151 42 229 6.1 13.0 0.00 0.00 0.00 55 1015.9
20260506224527 42 254 5.2 11.3 0.00 0.00 0.00 56 1016.0
20260506223005 42 274 7.0 11.3 0.00 0.00 0.00 56 1016.1
20260506221504 42 296 5.2 13.9 0.00 0.00 0.00 55 1016.1
20260506220038 42 266 5.2 10.4 0.00 0.00 0.00 56 1016.0
20260506214551 42 265 7.0 12.2 0.00 0.00 0.00 57 1015.8
20260506213011 42 279 7.8 12.2 0.00 0.00 0.00 55 1015.8
20260506211558 42 251 5.2 13.0 0.00 0.00 0.00 57 1015.8
20260506210039 42 255 7.0 11.3 0.00 0.00 0.00 58 1016.0
20260506204523 43 263 7.8 12.2 0.00 0.00 0.00 56 1016.0
20260506203009 43 269 6.1 11.3 0.00 0.00 0.00 56 1016.0
20260506201509 42 290 8.7 13.9 0.00 0.00 0.00 54 1016.1
20260506200044 43 294 9.6 13.0 0.00 0.00 0.00 53 1016.2
20260506194558 43 319 6.1 10.4 0.00 0.00 0.00 53 1016.1
20260506193016 42 319 4.3 13.9 0.00 0.00 0.00 52 1016.2
20260506191521 43 271 6.1 11.3 0.00 0.00 0.00 54 1016.2
20260506190004 42 288 8.7 13.0 0.00 0.00 0.00 53 1016.1
20260506184559 42 242 4.3 11.3 0.00 0.00 0.00 55 1016.2
20260506184502 42 277 5.2 12.2 0.00 0.00 0.00 52 1016.1
20260506183031 42 288 3.5 11.3 0.00 0.00 0.00 55 1016.1
20260506181541 42 315 7.0 13.0 0.00 0.00 0.00 53 1016.2
20260506180006 42 228 5.2 10.4 0.00 0.00 0.00 56 1016.2
20260506174602 42 317 7.0 14.8 0.00 0.00 0.00 52 1016.4
20260506174501 42 270 7.8 14.8 0.00 0.00 0.00 52 1016.4
20260506173034 42 236 3.5 7.8 0.00 0.00 0.00 54 1016.4
20260506171551 41 271 7.8 13.0 0.00 0.00 0.00 54 1016.5
20260506170008 41 254 5.2 10.4 0.00 0.00 0.00 54 1016.5
20260506164515 41 310 7.8 13.9 0.00 0.00 0.00 54 1016.5
20260506163048 41 290 6.1 13.9 0.00 0.00 0.00 54 1016.5
20260506161543 41 242 7.0 15.6 0.00 0.00 0.00 55 1016.5
20260506160015 41 273 4.3 13.0 0.00 0.00 0.00 55 1016.6
20260506154502 40 268 7.0 13.0 0.00 0.00 0.00 54 1016.5
20260506153033 40 299 7.8 12.2 0.00 0.00 0.00 56 1016.5
20260506151529 39 307 7.0 10.4 0.00 0.00 0.00 58 1016.5
20260506150100 39 273 6.1 12.2 0.00 0.00 0.00 59 1016.5
20260506144559 39 261 6.1 11.3 0.00 0.00 0.00 59 1016.3
20260506143018 38 280 6.1 8.7 0.00 0.00 0.00 58 1016.3
20260506141505 38 276 7.0 10.4 0.00 0.00 0.00 61 1016.2
20260506140029 38 304 7.0 11.3 0.00 0.00 0.00 62 1016.1
20260506134523 38 250 4.3 9.6 0.00 0.00 0.00 64 1015.8
20260506133053 37 313 2.6 6.1 0.00 0.00 0.00 64 1015.8
20260506131545 36 268 2.6 5.2 0.00 0.00 0.00 71 1016.0
20260506130014 35 313 2.6 4.3 0.00 0.00 0.00 71 1015.8
20260506124557 34 296 1.7 3.5 0.00 0.00 0.00 72 1015.5
20260506123023 34 278 1.7 3.5 0.00 0.00 0.00 74 1015.4
20260506121516 33 275 1.7 3.5 0.00 0.00 0.00 75 1015.4
20260506120047 32 280 0.9 3.5 0.00 0.00 0.00 76 1015.3
20260506114541 31 322 0.0 2.6 0.00 0.00 0.00 78 1015.2
20260506113006 30 255 0.0 2.6 0.00 0.00 0.00 79 1015.0
20260506111604 30 278 0.0 0.9 0.00 0.00 0.00 78 1014.6
20260506110014 30 311 0.0 0.9 0.00 0.00 0.00 77 1014.2